Time,TemperatureF,DewpointF,PressureIn,WindDirection,WindDirectionDegrees,WindSpeedMPH,WindSpeedGustMPH,Humidity,HourlyPrecipIn,Conditions,Clouds,dailyrainin,SoftwareType,DateUTC
2013-01-11 00:01:00,54.5,46.4,29.24,NE,45,1.1,0.0,74,0.00,-RA,,0.00,WeatherDisplay:10.37,2013-01-11 05:01:00,
2013-01-11 00:02:00,54.5,46.4,29.24,NE,45,0.0,0.0,74,0.00,-RA,,0.00,WeatherDisplay:10.37,2013-01-11 05:02:00,
2013-01-11 00:03:00,54.5,46.4,29.24,NE,45,1.1,1.1,74,0.00,-RA,,0.00,WeatherDisplay:10.37,2013-01-11 05:03:00,
2013-01-11 00:08:00,54.3,46.9,29.24,North,0,1.1,0.0,76,0.00,-RA,,0.00,WeatherDisplay:10.37,2013-01-11 05:08:00,
2013-01-11 00:13:00,54.0,47.9,29.24,North,0,0.0,0.0,80,0.00,-RA,,0.00,WeatherDisplay:10.37,2013-01-11 05:13:00,
2013-01-11 00:18:00,53.6,48.6,29.24,South,180,3.5,3.5,83,0.00,-RA,,0.00,WeatherDisplay:10.37,2013-01-11 05:18:00,
2013-01-11 00:23:00,53.1,49.0,29.24,South,180,1.1,0.0,86,0.00,-RA,,0.00,WeatherDisplay:10.37,2013-01-11 05:23:00,
2013-01-11 00:28:00,52.5,50.8,29.23,South,180,3.5,3.5,94,0.00,-RA,,0.00,WeatherDisplay:10.37,2013-01-11 05:28:00,
2013-01-11 00:33:00,52.3,51.2,29.23,North,0,3.5,3.5,96,0.00,-RA,,0.00,WeatherDisplay:10.37,2013-01-11 05:33:00,
2013-01-11 00:38:00,51.6,51.3,29.23,North,0,3.5,0.0,99,0.01,-RA,,0.01,WeatherDisplay:10.37,2013-01-11 05:38:00,
2013-01-11 00:43:00,51.4,51.2,29.23,North,0,0.0,0.0,99,0.01,-RA,,0.01,WeatherDisplay:10.37,2013-01-11 05:43:00,
2013-01-11 00:48:00,51.1,50.8,29.23,North,0,0.0,0.0,99,0.01,-RA,,0.01,WeatherDisplay:10.37,2013-01-11 05:48:00,
2013-01-11 00:53:00,50.9,50.6,29.23,North,0,0.0,0.0,99,0.01,-RA,,0.01,WeatherDisplay:10.37,2013-01-11 05:53:00,
2013-01-11 00:58:00,50.7,50.4,29.23,North,0,0.0,0.0,99,0.01,-RA,,0.01,WeatherDisplay:10.37,2013-01-11 05:58:00,
2013-01-11 01:03:00,50.7,50.4,29.23,North,0,0.0,0.0,99,0.01,-RA,,0.01,WeatherDisplay:10.37,2013-01-11 06:03:00,
2013-01-11 01:08:00,50.5,50.3,29.23,NW,315,1.1,0.0,99,0.02,-RA,,0.02,WeatherDisplay:10.37,2013-01-11 06:08:00,
2013-01-11 01:13:00,50.4,50.1,29.23,NW,315,0.0,0.0,99,0.02,-RA,,0.02,WeatherDisplay:10.37,2013-01-11 06:13:00,
2013-01-11 01:18:00,50.2,49.9,29.23,NW,315,0.0,0.0,99,0.02,-RA,,0.02,WeatherDisplay:10.37,2013-01-11 06:18:00,
2013-01-11 01:23:00,50.2,49.9,29.22,NW,315,0.0,0.0,99,0.02,-RA,,0.02,WeatherDisplay:10.37,2013-01-11 06:23:00,
2013-01-11 01:28:00,50.0,49.7,29.22,NE,45,1.1,1.1,99,0.02,-RA,,0.02,WeatherDisplay:10.37,2013-01-11 06:28:00,
2013-01-11 01:33:00,50.2,49.9,29.21,NE,45,2.3,0.0,99,0.04,-RA,,0.04,WeatherDisplay:10.37,2013-01-11 06:33:00,
2013-01-11 01:38:00,49.8,49.6,29.21,North,0,3.5,3.5,99,0.02,-RA,,0.04,WeatherDisplay:10.37,2013-01-11 06:38:00,
2013-01-11 01:43:00,49.6,49.4,29.21,SW,225,1.1,0.0,99,0.02,-RA,,0.04,WeatherDisplay:10.37,2013-01-11 06:43:00,
2013-01-11 01:48:00,49.5,49.2,29.22,West,270,3.5,3.5,99,0.02,-RA,,0.04,WeatherDisplay:10.37,2013-01-11 06:48:00,
2013-01-11 01:53:00,49.1,48.8,29.22,NW,315,2.3,2.3,99,0.02,-RA,,0.04,WeatherDisplay:10.37,2013-01-11 06:53:00,
2013-01-11 01:58:00,48.9,48.7,29.21,NW,315,3.5,0.0,99,0.02,-RA,,0.04,WeatherDisplay:10.37,2013-01-11 06:58:00,
2013-01-11 02:03:00,48.7,48.5,29.20,NW,315,1.1,0.0,99,0.02,OVC,,0.04,WeatherDisplay:10.37,2013-01-11 07:03:00,
2013-01-11 02:08:00,48.2,47.9,29.20,WNW,292,3.5,3.5,99,0.01,OVC,,0.04,WeatherDisplay:10.37,2013-01-11 07:08:00,
2013-01-11 02:13:00,48.0,47.8,29.20,East,90,3.5,3.5,99,0.01,OVC,,0.04,WeatherDisplay:10.37,2013-01-11 07:13:00,
2013-01-11 02:18:00,47.8,47.6,29.20,SE,135,3.5,0.0,99,0.01,OVC,,0.04,WeatherDisplay:10.37,2013-01-11 07:18:00,
2013-01-11 02:23:00,47.7,47.4,29.20,North,0,1.1,0.0,99,0.01,OVC,,0.04,WeatherDisplay:10.37,2013-01-11 07:23:00,
2013-01-11 02:28:00,47.7,47.4,29.20,North,0,1.1,1.1,99,0.01,OVC,,0.04,WeatherDisplay:10.37,2013-01-11 07:28:00,
2013-01-11 02:33:00,47.7,47.4,29.20,NE,45,1.1,1.1,99,0.00,OVC,,0.04,WeatherDisplay:10.37,2013-01-11 07:33:00,
2013-01-11 02:38:00,47.7,47.4,29.21,East,90,2.3,0.0,99,0.00,OVC,,0.04,WeatherDisplay:10.37,2013-01-11 07:38:00,
2013-01-11 02:43:00,47.5,47.2,29.20,North,0,2.3,2.3,99,0.00,OVC,,0.04,WeatherDisplay:10.37,2013-01-11 07:43:00,
2013-01-11 02:48:00,47.5,47.2,29.20,North,0,2.3,2.3,99,0.00,OVC,,0.04,WeatherDisplay:10.37,2013-01-11 07:48:00,
2013-01-11 02:53:00,47.5,47.2,29.20,SE,135,3.5,3.5,99,0.00,OVC,,0.04,WeatherDisplay:10.37,2013-01-11 07:53:00,
2013-01-11 02:58:00,47.5,47.2,29.19,North,0,3.5,3.5,99,0.00,OVC,,0.04,WeatherDisplay:10.37,2013-01-11 07:58:00,
2013-01-11 03:03:00,47.5,47.2,29.19,NE,45,3.5,3.5,99,0.00,OVC,,0.04,WeatherDisplay:10.37,2013-01-11 08:03:00,
2013-01-11 03:08:00,47.3,47.0,29.19,NW,315,3.5,0.0,99,0.00,OVC,,0.04,WeatherDisplay:10.37,2013-01-11 08:08:00,
2013-01-11 03:13:00,47.3,47.0,29.19,North,0,3.5,0.0,99,0.00,OVC,,0.04,WeatherDisplay:10.37,2013-01-11 08:13:00,
2013-01-11 03:18:00,47.3,47.0,29.19,NW,315,2.3,0.0,99,0.00,OVC,,0.04,WeatherDisplay:10.37,2013-01-11 08:18:00,
2013-01-11 03:23:00,47.3,47.0,29.19,North,0,1.1,0.0,99,0.00,OVC,,0.04,WeatherDisplay:10.37,2013-01-11 08:23:00,
2013-01-11 03:28:00,47.3,47.0,29.18,NE,45,2.3,2.3,99,0.00,OVC,,0.04,WeatherDisplay:10.37,2013-01-11 08:28:00,
2013-01-11 03:33:00,47.3,47.0,29.19,NE,45,1.1,0.0,99,0.00,OVC,,0.04,WeatherDisplay:10.37,2013-01-11 08:33:00,
2013-01-11 03:38:00,47.3,47.0,29.19,SW,225,1.1,0.0,99,0.00,OVC,,0.04,WeatherDisplay:10.37,2013-01-11 08:38:00,
2013-01-11 03:43:00,47.3,47.0,29.18,SW,225,0.0,0.0,99,0.00,OVC,,0.04,WeatherDisplay:10.37,2013-01-11 08:43:00,
2013-01-11 03:48:00,47.3,47.0,29.18,NE,45,2.3,2.3,99,0.00,OVC,,0.04,WeatherDisplay:10.37,2013-01-11 08:48:00,
2013-01-11 03:53:00,47.3,47.0,29.17,NE,45,2.3,2.3,99,0.00,OVC,,0.04,WeatherDisplay:10.37,2013-01-11 08:53:00,
2013-01-11 03:58:00,47.1,46.9,29.17,NW,315,1.1,0.0,99,0.00,OVC,,0.04,WeatherDisplay:10.37,2013-01-11 08:58:00,
2013-01-11 04:03:00,47.1,46.9,29.17,NW,315,0.0,0.0,99,0.00,OVC,,0.04,WeatherDisplay:10.37,2013-01-11 09:03:00,
2013-01-11 04:08:00,47.1,46.9,29.16,NW,315,0.0,0.0,99,0.00,OVC,,0.04,WeatherDisplay:10.37,2013-01-11 09:08:00,
2013-01-11 04:13:00,47.3,47.0,29.17,West,270,1.1,0.0,99,0.00,OVC,,0.04,WeatherDisplay:10.37,2013-01-11 09:13:00,
2013-01-11 04:18:00,47.3,47.0,29.17,West,270,2.3,0.0,99,0.00,OVC,,0.04,WeatherDisplay:10.37,2013-01-11 09:18:00,
2013-01-11 04:23:00,47.3,47.0,29.16,East,90,3.5,3.5,99,0.00,OVC,,0.04,WeatherDisplay:10.37,2013-01-11 09:23:00,
2013-01-11 04:28:00,47.3,47.0,29.16,NE,45,3.5,3.5,99,0.00,OVC,,0.04,WeatherDisplay:10.37,2013-01-11 09:28:00,
2013-01-11 04:33:00,47.3,47.0,29.16,East,90,3.5,3.5,99,0.00,OVC,,0.04,WeatherDisplay:10.37,2013-01-11 09:33:00,
2013-01-11 04:38:00,47.3,47.0,29.15,NE,45,5.8,5.8,99,0.00,OVC,,0.04,WeatherDisplay:10.37,2013-01-11 09:38:00,
2013-01-11 04:43:00,47.3,47.0,29.15,NNE,22,2.3,2.3,99,0.00,OVC,,0.04,WeatherDisplay:10.37,2013-01-11 09:43:00,
2013-01-11 04:48:00,47.3,47.0,29.16,North,0,5.8,0.0,99,0.00,OVC,,0.04,WeatherDisplay:10.37,2013-01-11 09:48:00,
2013-01-11 04:53:00,47.5,47.2,29.16,North,0,2.3,0.0,99,0.00,OVC,,0.04,WeatherDisplay:10.37,2013-01-11 09:53:00,
2013-01-11 04:58:00,47.5,47.2,29.16,North,0,3.5,0.0,99,0.00,OVC,,0.04,WeatherDisplay:10.37,2013-01-11 09:58:00,
2013-01-11 05:03:00,47.5,47.2,29.16,NE,45,3.5,0.0,99,0.00,OVC,,0.04,WeatherDisplay:10.37,2013-01-11 10:03:00,
2013-01-11 05:08:00,47.5,47.2,29.16,North,0,3.5,3.5,99,0.00,OVC,,0.04,WeatherDisplay:10.37,2013-01-11 10:08:00,
2013-01-11 05:13:00,47.5,47.2,29.17,East,90,4.6,0.0,99,0.01,RA,,0.05,WeatherDisplay:10.37,2013-01-11 10:13:00,
2013-01-11 05:18:00,47.5,47.2,29.16,North,0,1.1,0.0,99,0.01,RA,,0.05,WeatherDisplay:10.37,2013-01-11 10:18:00,
2013-01-11 05:23:00,47.5,47.2,29.15,East,90,3.5,3.5,99,0.01,OVC,,0.05,WeatherDisplay:10.37,2013-01-11 10:23:00,
2013-01-11 05:28:00,47.7,47.4,29.16,ENE,68,2.3,2.3,99,0.01,OVC,,0.05,WeatherDisplay:10.37,2013-01-11 10:28:00,
2013-01-11 05:33:00,47.7,47.4,29.16,North,0,4.6,4.6,99,0.01,OVC,,0.05,WeatherDisplay:10.37,2013-01-11 10:33:00,
2013-01-11 05:38:00,47.7,47.4,29.15,East,90,1.1,1.1,99,0.01,OVC,,0.05,WeatherDisplay:10.37,2013-01-11 10:38:00,
2013-01-11 05:43:00,47.5,47.2,29.16,West,270,3.5,0.0,99,0.01,OVC,,0.05,WeatherDisplay:10.37,2013-01-11 10:43:00,
2013-01-11 05:48:00,47.7,47.4,29.15,NE,45,2.3,3.1,99,0.01,OVC,,0.05,WeatherDisplay:10.37,2013-01-11 10:48:00,
2013-01-11 05:53:00,47.7,47.4,29.15,SW,225,3.5,0.0,99,0.01,OVC,,0.05,WeatherDisplay:10.37,2013-01-11 10:53:00,
2013-01-11 05:58:00,47.5,47.2,29.15,NE,45,1.1,1.6,99,0.01,OVC,,0.05,WeatherDisplay:10.37,2013-01-11 10:58:00,
2013-01-11 06:03:00,47.5,47.2,29.15,SE,135,4.6,4.6,99,0.01,OVC,,0.05,WeatherDisplay:10.37,2013-01-11 11:03:00,
2013-01-11 06:08:00,47.5,47.2,29.15,North,0,1.1,0.0,99,0.01,OVC,,0.05,WeatherDisplay:10.37,2013-01-11 11:08:00,
2013-01-11 06:13:00,47.5,47.2,29.15,East,90,3.5,3.5,99,0.00,OVC,,0.05,WeatherDisplay:10.37,2013-01-11 11:13:00,
2013-01-11 06:18:00,47.5,47.2,29.15,North,0,3.5,3.5,99,0.00,OVC,,0.05,WeatherDisplay:10.37,2013-01-11 11:18:00,
2013-01-11 06:23:00,47.5,47.2,29.15,NE,45,4.6,4.6,99,0.00,OVC,,0.05,WeatherDisplay:10.37,2013-01-11 11:23:00,
2013-01-11 06:28:00,47.3,47.0,29.14,NE,45,4.6,4.6,99,0.00,OVC,,0.05,WeatherDisplay:10.37,2013-01-11 11:28:00,
2013-01-11 06:33:00,47.3,47.0,29.14,NE,45,4.6,4.6,99,0.00,OVC,,0.05,WeatherDisplay:10.37,2013-01-11 11:33:00,
2013-01-11 06:38:00,47.3,47.0,29.14,North,0,5.8,0.0,99,0.00,OVC,,0.05,WeatherDisplay:10.37,2013-01-11 11:38:00,
2013-01-11 06:43:00,47.3,47.0,29.15,North,0,3.5,3.5,99,0.00,OVC,,0.05,WeatherDisplay:10.37,2013-01-11 11:43:00,
2013-01-11 06:48:00,47.3,47.0,29.14,NE,45,2.3,2.3,99,0.00,OVC,,0.05,WeatherDisplay:10.37,2013-01-11 11:48:00,
2013-01-11 06:53:00,47.1,46.9,29.14,East,90,2.3,2.3,99,0.00,OVC,,0.05,WeatherDisplay:10.37,2013-01-11 11:53:00,
2013-01-11 06:58:00,47.1,46.9,29.14,North,0,3.5,3.5,99,0.00,OVC,,0.05,WeatherDisplay:10.37,2013-01-11 11:58:00,
2013-01-11 07:03:00,47.1,46.9,29.14,NE,45,3.5,3.5,99,0.00,,,0.05,WeatherDisplay:10.37,2013-01-11 12:03:00,
2013-01-11 07:08:00,47.1,46.9,29.14,SW,225,3.5,3.5,99,0.00,,,0.05,WeatherDisplay:10.37,2013-01-11 12:08:00,
2013-01-11 07:13:00,47.1,46.9,29.14,SW,225,3.5,3.5,99,0.00,,,0.05,WeatherDisplay:10.37,2013-01-11 12:13:00,
2013-01-11 07:18:00,47.1,46.9,29.15,SW,225,3.5,0.0,99,0.00,,,0.05,WeatherDisplay:10.37,2013-01-11 12:18:00,
2013-01-11 07:23:00,47.1,46.9,29.14,North,0,3.5,3.5,99,0.00,,,0.05,WeatherDisplay:10.37,2013-01-11 12:23:00,
2013-01-11 07:28:00,47.3,47.0,29.15,North,0,1.1,1.1,99,0.00,,,0.05,WeatherDisplay:10.37,2013-01-11 12:28:00,
2013-01-11 07:33:00,47.3,47.0,29.15,SW,225,2.3,2.3,99,0.00,,,0.05,WeatherDisplay:10.37,2013-01-11 12:33:00,
2013-01-11 07:38:00,47.3,47.0,29.15,ENE,68,3.5,3.5,99,0.00,,,0.05,WeatherDisplay:10.37,2013-01-11 12:38:00,
2013-01-11 07:43:00,47.3,47.0,29.15,NW,315,3.5,3.5,99,0.02,RA,,0.07,WeatherDisplay:10.37,2013-01-11 12:43:00,
2013-01-11 07:48:00,47.3,47.0,29.16,NW,315,1.1,2.2,99,0.02,RA,,0.07,WeatherDisplay:10.37,2013-01-11 12:48:00,
2013-01-11 07:53:00,47.3,47.0,29.16,NW,315,3.5,0.0,99,0.02,,,0.07,WeatherDisplay:10.37,2013-01-11 12:53:00,
2013-01-11 07:58:00,47.5,47.2,29.17,NW,315,5.8,5.8,99,0.05,RA,,0.11,WeatherDisplay:10.37,2013-01-11 12:58:00,
2013-01-11 08:03:00,47.3,47.0,29.16,NE,45,3.5,3.5,99,0.06,RA,,0.11,WeatherDisplay:10.37,2013-01-11 13:03:00,
2013-01-11 08:08:00,47.3,47.0,29.16,East,90,4.6,4.6,99,0.06,RA,,0.11,WeatherDisplay:10.37,2013-01-11 13:08:00,
2013-01-11 08:13:00,47.3,47.0,29.16,North,0,3.5,3.5,99,0.07,RA,,0.12,WeatherDisplay:10.37,2013-01-11 13:13:00,
2013-01-11 08:18:00,47.3,47.0,29.16,NE,45,5.8,5.8,99,0.07,RA,,0.12,WeatherDisplay:10.37,2013-01-11 13:18:00,
2013-01-11 08:23:00,47.3,47.0,29.15,NE,45,5.8,5.8,99,0.07,CLR,,0.12,WeatherDisplay:10.37,2013-01-11 13:23:00,
2013-01-11 08:28:00,47.3,47.0,29.15,North,0,5.8,5.8,99,0.07,,,0.12,WeatherDisplay:10.37,2013-01-11 13:28:00,
2013-01-11 08:33:00,47.3,47.0,29.15,NE,45,4.6,4.6,99,0.07,,,0.12,WeatherDisplay:10.37,2013-01-11 13:33:00,
2013-01-11 08:38:00,47.5,47.2,29.15,NW,315,4.6,4.6,99,0.07,,,0.12,WeatherDisplay:10.37,2013-01-11 13:38:00,
2013-01-11 08:43:00,47.5,47.2,29.16,North,0,3.5,3.5,99,0.05,,,0.12,WeatherDisplay:10.37,2013-01-11 13:43:00,
2013-01-11 08:48:00,47.5,47.2,29.16,North,0,1.1,0.0,99,0.05,,,0.12,WeatherDisplay:10.37,2013-01-11 13:48:00,
2013-01-11 08:53:00,47.5,47.2,29.17,North,0,3.5,3.5,99,0.05,,,0.12,WeatherDisplay:10.37,2013-01-11 13:53:00,
2013-01-11 08:58:00,47.5,47.2,29.17,NE,45,1.1,1.6,99,0.02,,,0.12,WeatherDisplay:10.37,2013-01-11 13:58:00,
2013-01-11 09:03:00,47.7,47.4,29.17,North,0,1.1,0.0,99,0.01,,,0.12,WeatherDisplay:10.37,2013-01-11 14:03:00,
2013-01-11 09:08:00,47.7,47.4,29.17,North,0,3.5,3.5,99,0.01,,,0.12,WeatherDisplay:10.37,2013-01-11 14:08:00,
2013-01-11 09:13:00,47.7,47.4,29.17,SW,225,1.1,0.0,99,0.01,RA,,0.13,WeatherDisplay:10.37,2013-01-11 14:13:00,
2013-01-11 09:18:00,47.7,47.4,29.17,NE,45,2.3,2.3,99,0.01,RA,,0.13,WeatherDisplay:10.37,2013-01-11 14:18:00,
2013-01-11 09:23:00,47.8,47.6,29.17,NE,45,3.5,0.0,99,0.01,CLR,,0.13,WeatherDisplay:10.37,2013-01-11 14:23:00,
2013-01-11 09:28:00,47.8,47.6,29.17,North,0,2.3,0.0,99,0.01,,,0.13,WeatherDisplay:10.37,2013-01-11 14:28:00,
2013-01-11 09:33:00,47.8,47.6,29.17,NE,45,2.3,0.0,99,0.01,,,0.13,WeatherDisplay:10.37,2013-01-11 14:33:00,
2013-01-11 09:38:00,47.8,47.6,29.17,SE,135,2.3,0.0,99,0.01,,,0.13,WeatherDisplay:10.37,2013-01-11 14:38:00,
2013-01-11 09:43:00,47.8,47.6,29.17,NE,45,3.5,3.5,99,0.01,,,0.13,WeatherDisplay:10.37,2013-01-11 14:43:00,
2013-01-11 09:48:00,47.8,47.6,29.17,NE,45,3.5,3.5,99,0.02,RA,,0.14,WeatherDisplay:10.37,2013-01-11 14:48:00,
2013-01-11 09:53:00,47.8,47.6,29.17,NE,45,3.5,3.5,99,0.02,RA,,0.14,WeatherDisplay:10.37,2013-01-11 14:53:00,
2013-01-11 09:58:00,48.0,47.8,29.17,NE,45,4.6,4.6,99,0.02,,,0.14,WeatherDisplay:10.37,2013-01-11 14:58:00,
2013-01-11 10:03:00,48.0,47.8,29.17,West,270,1.1,0.0,99,0.02,-RA,,0.14,WeatherDisplay:10.37,2013-01-11 15:03:00,
2013-01-11 10:08:00,48.2,47.9,29.17,SW,225,3.5,3.5,99,0.02,-RA,,0.14,WeatherDisplay:10.37,2013-01-11 15:08:00,
2013-01-11 10:13:00,48.2,47.9,29.16,NE,45,3.5,3.5,99,0.01,-RA,,0.14,WeatherDisplay:10.37,2013-01-11 15:13:00,
2013-01-11 10:18:00,48.4,48.1,29.16,NE,45,5.8,5.8,99,0.01,-RA,,0.14,WeatherDisplay:10.37,2013-01-11 15:18:00,
2013-01-11 10:23:00,48.6,48.3,29.16,NE,45,5.8,5.8,99,0.01,-RA,,0.14,WeatherDisplay:10.37,2013-01-11 15:23:00,
2013-01-11 10:28:00,48.6,48.3,29.16,SW,225,2.3,2.3,99,0.01,-RA,,0.14,WeatherDisplay:10.37,2013-01-11 15:28:00,
2013-01-11 10:33:00,48.2,47.9,29.16,NE,45,3.5,3.5,99,0.02,-RA,,0.15,WeatherDisplay:10.37,2013-01-11 15:33:00,
2013-01-11 10:38:00,48.0,47.8,29.16,NE,45,2.3,2.3,99,0.02,-RA,,0.15,WeatherDisplay:10.37,2013-01-11 15:38:00,
2013-01-11 10:43:00,48.2,47.9,29.16,NW,315,0.0,0.0,99,0.04,-RA,,0.17,WeatherDisplay:10.37,2013-01-11 15:43:00,
2013-01-11 10:48:00,48.2,47.9,29.16,North,0,2.3,0.0,99,0.04,-RA,,0.18,WeatherDisplay:10.37,2013-01-11 15:48:00,
2013-01-11 10:53:00,48.2,47.9,29.16,NW,315,2.3,0.0,99,0.04,-RA,,0.19,WeatherDisplay:10.37,2013-01-11 15:53:00,
2013-01-11 10:58:00,48.2,47.9,29.16,SW,225,3.5,0.0,99,0.05,-RA,,0.19,WeatherDisplay:10.37,2013-01-11 15:58:00,
2013-01-11 11:03:00,48.0,47.8,29.16,NE,45,5.8,5.8,99,0.05,RA,,0.19,WeatherDisplay:10.37,2013-01-11 16:03:00,
2013-01-11 11:08:00,47.8,47.6,29.16,SW,225,0.0,0.0,99,0.05,OVC,,0.19,WeatherDisplay:10.37,2013-01-11 16:08:00,
2013-01-11 11:13:00,47.8,47.6,29.16,SW,225,0.0,0.7,99,0.05,OVC,,0.19,WeatherDisplay:10.37,2013-01-11 16:13:00,
2013-01-11 11:18:00,47.7,47.4,29.15,NE,45,2.3,2.3,99,0.05,OVC,,0.19,WeatherDisplay:10.37,2013-01-11 16:18:00,
2013-01-11 11:23:00,47.7,47.4,29.14,NW,315,3.5,3.5,99,0.05,OVC,,0.19,WeatherDisplay:10.37,2013-01-11 16:23:00,
2013-01-11 11:28:00,47.5,47.2,29.14,North,0,4.6,4.6,99,0.05,OVC,,0.19,WeatherDisplay:10.37,2013-01-11 16:28:00,
2013-01-11 11:33:00,47.3,47.0,29.14,North,0,1.1,1.1,99,0.04,OVC,,0.19,WeatherDisplay:10.37,2013-01-11 16:33:00,
2013-01-11 11:38:00,47.3,47.0,29.14,NE,45,3.5,3.5,99,0.04,OVC,,0.19,WeatherDisplay:10.37,2013-01-11 16:38:00,
2013-01-11 11:43:00,47.3,47.0,29.14,West,270,2.3,2.3,99,0.02,OVC,,0.19,WeatherDisplay:10.37,2013-01-11 16:43:00,
2013-01-11 11:48:00,47.1,46.9,29.13,NE,45,3.5,3.5,99,0.01,OVC,,0.19,WeatherDisplay:10.37,2013-01-11 16:48:00,
2013-01-11 11:53:00,47.3,47.0,29.13,East,90,3.5,3.5,99,0.01,OVC,,0.19,WeatherDisplay:10.37,2013-01-11 16:53:00,
2013-01-11 11:58:00,47.3,47.0,29.12,NE,45,3.5,3.5,99,0.00,OVC,,0.19,WeatherDisplay:10.37,2013-01-11 16:58:00,
2013-01-11 12:03:00,47.1,46.9,29.12,North,0,3.5,3.5,99,0.00,-RA,,0.19,WeatherDisplay:10.37,2013-01-11 17:03:00,
2013-01-11 12:08:00,47.1,46.9,29.11,North,0,3.5,0.0,99,0.00,-RA,,0.19,WeatherDisplay:10.37,2013-01-11 17:08:00,
2013-01-11 12:13:00,47.1,46.9,29.11,NE,45,5.8,5.8,99,0.00,-RA,,0.19,WeatherDisplay:10.37,2013-01-11 17:13:00,
2013-01-11 12:18:00,47.1,46.9,29.10,NW,315,2.3,2.3,99,0.00,-RA,,0.19,WeatherDisplay:10.37,2013-01-11 17:18:00,
2013-01-11 12:23:00,47.1,46.9,29.10,NE,45,3.5,3.5,99,0.00,-RA,,0.19,WeatherDisplay:10.37,2013-01-11 17:23:00,
2013-01-11 12:28:00,47.1,46.9,29.11,NW,315,2.3,0.0,99,0.00,-RA,,0.19,WeatherDisplay:10.37,2013-01-11 17:28:00,
2013-01-11 12:33:00,47.1,46.9,29.10,North,0,3.5,0.0,99,0.00,-RA,,0.19,WeatherDisplay:10.37,2013-01-11 17:33:00,
2013-01-11 12:38:00,47.3,47.0,29.10,North,0,3.5,3.5,99,0.00,-RA,,0.19,WeatherDisplay:10.37,2013-01-11 17:38:00,
2013-01-11 12:43:00,47.3,47.0,29.09,NE,45,3.5,3.5,99,0.00,-RA,,0.19,WeatherDisplay:10.37,2013-01-11 17:43:00,
2013-01-11 12:48:00,47.3,47.0,29.09,NE,45,3.5,3.5,99,0.00,-RA,,0.19,WeatherDisplay:10.37,2013-01-11 17:48:00,
2013-01-11 12:53:00,47.3,47.0,29.09,East,90,3.5,3.5,99,0.00,-RA,,0.19,WeatherDisplay:10.37,2013-01-11 17:53:00,
2013-01-11 12:58:00,47.3,47.0,29.09,NW,315,3.5,3.5,99,0.00,-RA,,0.19,WeatherDisplay:10.37,2013-01-11 17:58:00,
2013-01-11 13:03:00,47.3,47.0,29.09,North,0,1.1,1.1,99,0.01,RA,,0.20,WeatherDisplay:10.37,2013-01-11 18:03:00,
2013-01-11 13:08:00,47.1,46.9,29.09,North,0,4.6,0.0,99,0.01,RA,,0.20,WeatherDisplay:10.37,2013-01-11 18:08:00,
2013-01-11 13:13:00,47.1,46.9,29.09,NW,315,2.3,2.3,99,0.01,OVC,,0.20,WeatherDisplay:10.37,2013-01-11 18:13:00,
2013-01-11 13:18:00,47.1,46.9,29.09,SW,225,2.3,0.0,99,0.01,OVC,,0.20,WeatherDisplay:10.37,2013-01-11 18:18:00,
2013-01-11 13:23:00,47.1,46.9,29.09,NE,45,2.3,0.0,99,0.01,OVC,,0.20,WeatherDisplay:10.37,2013-01-11 18:23:00,
2013-01-11 13:28:00,46.9,46.7,29.08,North,0,3.5,3.5,99,0.01,OVC,,0.20,WeatherDisplay:10.37,2013-01-11 18:28:00,
2013-01-11 13:33:00,46.8,46.5,29.08,NE,45,3.5,3.5,99,0.01,OVC,,0.20,WeatherDisplay:10.37,2013-01-11 18:33:00,
2013-01-11 13:38:00,46.8,46.5,29.08,NE,45,2.3,0.0,99,0.01,OVC,,0.20,WeatherDisplay:10.37,2013-01-11 18:38:00,
2013-01-11 13:43:00,46.6,46.3,29.08,SW,225,2.3,0.0,99,0.01,OVC,,0.20,WeatherDisplay:10.37,2013-01-11 18:43:00,
2013-01-11 13:48:00,46.6,46.3,29.08,NW,315,3.5,0.0,99,0.01,OVC,,0.20,WeatherDisplay:10.37,2013-01-11 18:48:00,
2013-01-11 13:53:00,46.6,46.3,29.08,NE,45,1.1,0.0,99,0.01,OVC,,0.20,WeatherDisplay:10.37,2013-01-11 18:53:00,
2013-01-11 13:58:00,46.6,46.3,29.07,SW,225,1.1,0.0,99,0.01,OVC,,0.20,WeatherDisplay:10.37,2013-01-11 18:58:00,
2013-01-11 14:03:00,46.8,46.5,29.07,SW,225,0.0,0.0,99,0.00,,,0.20,WeatherDisplay:10.37,2013-01-11 19:03:00,
2013-01-11 14:08:00,46.6,46.3,29.07,NE,45,3.5,3.5,99,0.00,,,0.20,WeatherDisplay:10.37,2013-01-11 19:08:00,
2013-01-11 14:13:00,46.6,46.3,29.07,NW,315,0.0,0.0,99,0.00,,,0.20,WeatherDisplay:10.37,2013-01-11 19:13:00,
2013-01-11 14:18:00,46.6,46.3,29.07,North,0,1.1,0.0,99,0.00,,,0.20,WeatherDisplay:10.37,2013-01-11 19:18:00,
2013-01-11 14:23:00,46.6,46.3,29.08,North,0,3.5,3.5,99,0.00,,,0.20,WeatherDisplay:10.37,2013-01-11 19:23:00,
2013-01-11 14:28:00,46.4,46.1,29.08,NE,45,2.3,0.0,99,0.00,,,0.20,WeatherDisplay:10.37,2013-01-11 19:28:00,
2013-01-11 14:33:00,46.2,46.0,29.08,NE,45,4.6,4.6,99,0.00,,,0.20,WeatherDisplay:10.37,2013-01-11 19:33:00,
2013-01-11 14:38:00,46.4,46.1,29.08,East,90,3.5,3.5,99,0.00,,,0.20,WeatherDisplay:10.37,2013-01-11 19:38:00,
2013-01-11 14:43:00,46.4,46.1,29.08,North,0,3.5,0.0,99,0.01,RA,,0.21,WeatherDisplay:10.37,2013-01-11 19:43:00,
2013-01-11 14:48:00,46.4,46.1,29.08,NE,45,3.5,0.0,99,0.01,RA,,0.21,WeatherDisplay:10.37,2013-01-11 19:48:00,
2013-01-11 14:53:00,46.2,46.0,29.07,North,0,3.5,3.5,99,0.01,CLR,,0.21,WeatherDisplay:10.37,2013-01-11 19:53:00,
2013-01-11 14:58:00,46.2,46.0,29.08,NW,315,2.3,0.0,99,0.01,,,0.21,WeatherDisplay:10.37,2013-01-11 19:58:00,
2013-01-11 15:03:00,46.4,46.1,29.08,NE,45,3.5,3.5,99,0.01,,,0.21,WeatherDisplay:10.37,2013-01-11 20:03:00,
2013-01-11 15:08:00,46.2,46.0,29.07,East,90,3.5,3.5,99,0.01,,,0.21,WeatherDisplay:10.37,2013-01-11 20:08:00,
2013-01-11 15:13:00,46.2,46.0,29.07,NE,45,2.3,2.3,99,0.01,,,0.21,WeatherDisplay:10.37,2013-01-11 20:13:00,
2013-01-11 15:18:00,46.4,46.1,29.07,NE,45,2.3,0.0,99,0.01,,,0.21,WeatherDisplay:10.37,2013-01-11 20:18:00,
2013-01-11 15:23:00,46.4,46.1,29.07,North,0,1.1,1.1,99,0.01,,,0.21,WeatherDisplay:10.37,2013-01-11 20:23:00,
2013-01-11 15:28:00,46.4,46.1,29.07,North,0,2.3,0.0,99,0.01,,,0.21,WeatherDisplay:10.37,2013-01-11 20:28:00,
2013-01-11 15:33:00,46.2,46.0,29.07,North,0,2.3,0.0,99,0.01,,,0.21,WeatherDisplay:10.37,2013-01-11 20:33:00,
2013-01-11 15:38:00,46.2,46.0,29.06,North,0,3.5,3.5,99,0.01,,,0.21,WeatherDisplay:10.37,2013-01-11 20:38:00,
2013-01-11 15:43:00,46.0,45.8,29.06,ENE,68,3.5,3.5,99,0.00,,,0.21,WeatherDisplay:10.37,2013-01-11 20:43:00,
2013-01-11 15:48:00,46.0,45.8,29.06,North,0,1.1,0.0,99,0.00,,,0.21,WeatherDisplay:10.37,2013-01-11 20:48:00,
2013-01-11 15:53:00,46.0,45.8,29.06,North,0,2.3,0.0,99,0.00,,,0.21,WeatherDisplay:10.37,2013-01-11 20:53:00,
2013-01-11 15:58:00,46.0,45.8,29.06,North,0,0.0,0.0,99,0.00,,,0.21,WeatherDisplay:10.37,2013-01-11 20:58:00,
2013-01-11 16:03:00,46.0,45.8,29.06,North,0,1.1,0.0,99,0.00,OVC,,0.21,WeatherDisplay:10.37,2013-01-11 21:03:00,
2013-01-11 16:08:00,46.0,45.8,29.06,North,0,2.3,0.0,99,0.00,OVC,,0.21,WeatherDisplay:10.37,2013-01-11 21:08:00,
2013-01-11 16:13:00,45.9,45.6,29.06,North,0,2.3,0.0,99,0.00,OVC,,0.21,WeatherDisplay:10.37,2013-01-11 21:13:00,
2013-01-11 16:18:00,45.9,45.6,29.06,North,0,1.1,1.1,99,0.00,OVC,,0.21,WeatherDisplay:10.37,2013-01-11 21:18:00,
2013-01-11 16:23:00,45.9,45.6,29.06,NW,315,2.3,0.0,99,0.00,OVC,,0.21,WeatherDisplay:10.37,2013-01-11 21:23:00,
2013-01-11 16:28:00,45.9,45.6,29.06,North,0,0.0,0.0,99,0.00,OVC,,0.21,WeatherDisplay:10.37,2013-01-11 21:28:00,
2013-01-11 16:33:00,45.9,45.6,29.06,North,0,1.1,0.0,99,0.00,OVC,,0.21,WeatherDisplay:10.37,2013-01-11 21:33:00,
2013-01-11 16:38:00,45.9,45.6,29.06,North,0,2.3,0.0,99,0.00,OVC,,0.21,WeatherDisplay:10.37,2013-01-11 21:38:00,
2013-01-11 16:43:00,45.9,45.6,29.06,North,0,0.0,0.0,99,0.00,OVC,,0.21,WeatherDisplay:10.37,2013-01-11 21:43:00,
2013-01-11 16:48:00,45.9,45.6,29.06,NW,315,0.0,0.0,99,0.00,OVC,,0.21,WeatherDisplay:10.37,2013-01-11 21:48:00,
2013-01-11 16:53:00,45.9,45.6,29.06,North,0,0.0,0.0,99,0.00,OVC,,0.21,WeatherDisplay:10.37,2013-01-11 21:53:00,
2013-01-11 16:58:00,45.9,45.6,29.06,SE,135,0.0,0.0,99,0.00,OVC,,0.21,WeatherDisplay:10.37,2013-01-11 21:58:00,
2013-01-11 17:03:00,45.9,45.6,29.06,North,0,0.0,0.0,99,0.00,OVC,,0.21,WeatherDisplay:10.37,2013-01-11 22:03:00,
2013-01-11 17:08:00,45.9,45.6,29.06,North,0,0.0,0.0,99,0.00,OVC,,0.21,WeatherDisplay:10.37,2013-01-11 22:08:00,
2013-01-11 17:13:00,45.9,45.6,29.06,North,0,0.0,0.0,99,0.00,OVC,,0.21,WeatherDisplay:10.37,2013-01-11 22:13:00,
2013-01-11 17:18:00,45.9,45.6,29.06,North,0,0.0,0.0,99,0.00,OVC,,0.21,WeatherDisplay:10.37,2013-01-11 22:18:00,
2013-01-11 17:23:00,45.9,45.6,29.05,NE,45,0.0,0.0,99,0.00,OVC,,0.21,WeatherDisplay:10.37,2013-01-11 22:23:00,
2013-01-11 17:28:00,45.9,45.6,29.05,West,270,3.5,0.0,99,0.00,OVC,,0.21,WeatherDisplay:10.37,2013-01-11 22:28:00,
2013-01-11 17:33:00,45.7,45.4,29.05,SE,135,1.1,1.1,99,0.00,OVC,,0.21,WeatherDisplay:10.37,2013-01-11 22:33:00,
2013-01-11 17:38:00,45.7,45.4,29.05,South,180,0.0,0.0,99,0.00,OVC,,0.21,WeatherDisplay:10.37,2013-01-11 22:38:00,
2013-01-11 17:43:00,45.7,45.4,29.05,NE,45,0.0,0.0,99,0.00,OVC,,0.21,WeatherDisplay:10.37,2013-01-11 22:43:00,
2013-01-11 17:48:00,45.7,45.4,29.04,North,0,3.5,3.5,99,0.00,OVC,,0.21,WeatherDisplay:10.37,2013-01-11 22:48:00,
2013-01-11 17:53:00,45.7,45.4,29.04,North,0,1.1,0.0,99,0.00,OVC,,0.21,WeatherDisplay:10.37,2013-01-11 22:53:00,
2013-01-11 17:58:00,45.7,45.4,29.04,North,0,2.3,0.0,99,0.00,OVC,,0.21,WeatherDisplay:10.37,2013-01-11 22:58:00,
2013-01-11 18:03:00,45.7,45.4,29.03,NE,45,2.3,2.3,99,0.00,,,0.21,WeatherDisplay:10.37,2013-01-11 23:03:00,
2013-01-11 18:08:00,45.7,45.4,29.04,North,0,2.3,0.0,99,0.00,,,0.21,WeatherDisplay:10.37,2013-01-11 23:08:00,
2013-01-11 18:13:00,45.7,45.4,29.05,NW,315,0.0,0.0,99,0.00,,,0.21,WeatherDisplay:10.37,2013-01-11 23:13:00,
2013-01-11 18:18:00,45.7,45.4,29.06,West,270,0.0,0.0,99,0.00,,,0.21,WeatherDisplay:10.37,2013-01-11 23:18:00,
2013-01-11 18:23:00,45.7,45.4,29.06,NW,315,1.1,0.0,99,0.00,,,0.21,WeatherDisplay:10.37,2013-01-11 23:23:00,
2013-01-11 18:28:00,45.7,45.4,29.06,North,0,1.1,0.0,99,0.00,,,0.21,WeatherDisplay:10.37,2013-01-11 23:28:00,
2013-01-11 18:33:00,45.7,45.4,29.06,North,0,0.0,0.0,99,0.00,,,0.21,WeatherDisplay:10.37,2013-01-11 23:33:00,
2013-01-11 18:38:00,45.7,45.4,29.06,NW,315,0.0,0.0,99,0.00,,,0.21,WeatherDisplay:10.37,2013-01-11 23:38:00,
2013-01-11 18:43:00,45.7,45.4,29.06,NW,315,0.0,0.0,99,0.00,,,0.21,WeatherDisplay:10.37,2013-01-11 23:43:00,
2013-01-11 18:48:00,45.7,45.4,29.07,NW,315,0.0,0.0,99,0.00,,,0.21,WeatherDisplay:10.37,2013-01-11 23:48:00,
2013-01-11 18:53:00,45.9,45.6,29.07,NW,315,1.1,0.0,99,0.00,,,0.21,WeatherDisplay:10.37,2013-01-11 23:53:00,
2013-01-11 18:58:00,45.9,45.6,29.07,West,270,0.0,0.0,99,0.00,,,0.21,WeatherDisplay:10.37,2013-01-11 23:58:00,
2013-01-11 19:03:00,45.9,45.6,29.07,NW,315,2.3,2.3,99,0.00,,,0.21,WeatherDisplay:10.37,2013-01-12 00:03:00,
2013-01-11 19:08:00,45.9,45.6,29.07,NW,315,2.3,0.0,99,0.00,,,0.21,WeatherDisplay:10.37,2013-01-12 00:08:00,
2013-01-11 19:13:00,45.9,45.6,29.07,West,270,1.1,0.0,99,0.00,,,0.21,WeatherDisplay:10.37,2013-01-12 00:13:00,
2013-01-11 19:18:00,45.9,45.6,29.07,North,0,0.0,0.0,99,0.00,,,0.21,WeatherDisplay:10.37,2013-01-12 00:18:00,
2013-01-11 19:23:00,45.9,45.6,29.08,NW,315,0.0,0.0,99,0.00,,,0.21,WeatherDisplay:10.37,2013-01-12 00:23:00,
2013-01-11 19:28:00,45.9,45.6,29.08,West,270,0.0,0.0,99,0.00,,,0.21,WeatherDisplay:10.37,2013-01-12 00:28:00,
2013-01-11 19:33:00,45.9,45.6,29.07,NW,315,0.0,0.0,99,0.00,,,0.21,WeatherDisplay:10.37,2013-01-12 00:33:00,
2013-01-11 19:38:00,46.0,45.8,29.08,North,0,0.0,0.0,99,0.00,,,0.21,WeatherDisplay:10.37,2013-01-12 00:38:00,
2013-01-11 19:43:00,46.0,45.8,29.08,North,0,0.0,0.0,99,0.00,,,0.21,WeatherDisplay:10.37,2013-01-12 00:43:00,
2013-01-11 19:48:00,46.0,45.8,29.08,SE,135,2.3,0.0,99,0.01,RA,,0.22,WeatherDisplay:10.37,2013-01-12 00:48:00,
2013-01-11 19:53:00,46.0,45.8,29.08,SE,135,0.0,0.0,99,0.01,RA,,0.22,WeatherDisplay:10.37,2013-01-12 00:53:00,
2013-01-11 19:58:00,46.0,45.8,29.07,SE,135,2.3,2.3,99,0.01,,,0.22,WeatherDisplay:10.37,2013-01-12 00:58:00,
2013-01-11 20:03:00,46.0,45.8,29.07,SE,135,0.0,0.0,99,0.01,CLR,,0.22,WeatherDisplay:10.37,2013-01-12 01:03:00,
2013-01-11 20:08:00,46.2,46.0,29.07,SE,135,0.0,0.0,99,0.01,,,0.22,WeatherDisplay:10.37,2013-01-12 01:08:00,
2013-01-11 20:13:00,46.2,46.0,29.07,SE,135,2.3,0.0,99,0.02,RA,,0.24,WeatherDisplay:10.37,2013-01-12 01:13:00,
2013-01-11 20:18:00,46.2,46.0,29.06,SE,135,0.0,0.0,99,0.02,RA,,0.24,WeatherDisplay:10.37,2013-01-12 01:18:00,
2013-01-11 20:23:00,46.2,46.0,29.06,SE,135,0.0,0.0,99,0.02,,,0.24,WeatherDisplay:10.37,2013-01-12 01:23:00,
2013-01-11 20:28:00,46.2,46.0,29.07,SE,135,1.1,0.0,99,0.02,CLR,,0.24,WeatherDisplay:10.37,2013-01-12 01:28:00,
2013-01-11 20:33:00,46.2,46.0,29.06,SE,135,1.1,0.0,99,0.02,,,0.24,WeatherDisplay:10.37,2013-01-12 01:33:00,
2013-01-11 20:38:00,46.4,46.1,29.07,SE,135,0.0,0.0,99,0.02,,,0.24,WeatherDisplay:10.37,2013-01-12 01:38:00,
2013-01-11 20:43:00,46.4,46.1,29.06,SE,135,1.1,0.0,99,0.02,,,0.24,WeatherDisplay:10.37,2013-01-12 01:43:00,
2013-01-11 20:48:00,46.4,46.1,29.05,SE,135,0.0,0.0,99,0.01,,,0.24,WeatherDisplay:10.37,2013-01-12 01:48:00,
2013-01-11 20:53:00,46.4,46.1,29.06,SE,135,0.0,0.0,99,0.02,RA,,0.25,WeatherDisplay:10.37,2013-01-12 01:53:00,
2013-01-11 20:58:00,46.4,46.1,29.06,SE,135,0.0,0.0,99,0.02,RA,,0.25,WeatherDisplay:10.37,2013-01-12 01:58:00,
2013-01-11 21:03:00,46.4,46.1,29.06,SE,135,0.0,0.0,99,0.02,CLR,,0.25,WeatherDisplay:10.37,2013-01-12 02:03:00,
2013-01-11 21:08:00,46.6,46.3,29.06,SE,135,0.0,0.0,99,0.02,,,0.25,WeatherDisplay:10.37,2013-01-12 02:08:00,
2013-01-11 21:13:00,46.6,46.3,29.06,SE,135,0.0,0.0,99,0.01,,,0.25,WeatherDisplay:10.37,2013-01-12 02:13:00,
2013-01-11 21:18:00,46.6,46.3,29.06,SE,135,0.0,0.0,99,0.01,,,0.25,WeatherDisplay:10.37,2013-01-12 02:18:00,
2013-01-11 21:23:00,46.8,46.5,29.06,SE,135,0.0,0.0,99,0.01,,,0.25,WeatherDisplay:10.37,2013-01-12 02:23:00,
2013-01-11 21:28:00,46.8,46.5,29.06,SE,135,0.0,0.0,99,0.01,,,0.25,WeatherDisplay:10.37,2013-01-12 02:28:00,
2013-01-11 21:33:00,46.8,46.5,29.05,SE,135,0.0,0.0,99,0.01,,,0.25,WeatherDisplay:10.37,2013-01-12 02:33:00,
2013-01-11 21:38:00,46.8,46.5,29.05,SE,135,0.0,0.0,99,0.01,,,0.25,WeatherDisplay:10.37,2013-01-12 02:38:00,
2013-01-11 21:43:00,46.9,46.7,29.05,South,180,0.0,0.0,99,0.01,,,0.25,WeatherDisplay:10.37,2013-01-12 02:43:00,
2013-01-11 21:48:00,46.9,46.7,29.05,South,180,0.0,0.0,99,0.01,,,0.25,WeatherDisplay:10.37,2013-01-12 02:48:00,
2013-01-11 21:53:00,46.9,46.7,29.05,South,180,0.0,0.0,99,0.00,,,0.25,WeatherDisplay:10.37,2013-01-12 02:53:00,
2013-01-11 21:58:00,46.9,46.7,29.05,South,180,0.0,0.0,99,0.00,,,0.25,WeatherDisplay:10.37,2013-01-12 02:58:00,
2013-01-11 22:03:00,47.1,46.9,29.05,South,180,0.0,0.0,99,0.00,OVC,,0.25,WeatherDisplay:10.37,2013-01-12 03:03:00,
2013-01-11 22:08:00,47.1,46.9,29.05,South,180,0.0,0.0,99,0.00,OVC,,0.25,WeatherDisplay:10.37,2013-01-12 03:08:00,
2013-01-11 22:13:00,47.1,46.9,29.05,South,180,0.0,0.0,99,0.00,OVC,,0.25,WeatherDisplay:10.37,2013-01-12 03:13:00,
2013-01-11 22:18:00,47.1,46.9,29.05,South,180,0.0,0.0,99,0.00,OVC,,0.25,WeatherDisplay:10.37,2013-01-12 03:18:00,
2013-01-11 22:23:00,47.1,46.9,29.06,South,180,0.0,0.0,99,0.00,OVC,,0.25,WeatherDisplay:10.37,2013-01-12 03:23:00,
2013-01-11 22:28:00,47.1,46.9,29.06,South,180,0.0,0.0,99,0.00,OVC,,0.25,WeatherDisplay:10.37,2013-01-12 03:28:00,
2013-01-11 22:33:00,47.1,46.9,29.06,South,180,0.0,0.0,99,0.00,OVC,,0.25,WeatherDisplay:10.37,2013-01-12 03:33:00,
2013-01-11 22:38:00,47.3,47.0,29.06,South,180,0.0,0.0,99,0.00,OVC,,0.25,WeatherDisplay:10.37,2013-01-12 03:38:00,
2013-01-11 22:43:00,47.3,47.0,29.05,South,180,0.0,0.0,99,0.00,OVC,,0.25,WeatherDisplay:10.37,2013-01-12 03:43:00,
2013-01-11 22:48:00,47.3,47.0,29.05,South,180,0.0,0.0,99,0.00,OVC,,0.25,WeatherDisplay:10.37,2013-01-12 03:48:00,
2013-01-11 22:53:00,47.3,47.0,29.05,South,180,0.0,0.0,99,0.00,OVC,,0.25,WeatherDisplay:10.37,2013-01-12 03:53:00,
2013-01-11 22:58:00,47.3,47.0,29.05,South,180,0.0,0.0,99,0.00,OVC,,0.25,WeatherDisplay:10.37,2013-01-12 03:58:00,
2013-01-11 23:03:00,47.5,47.2,29.05,South,180,0.0,0.0,99,0.00,OVC,,0.25,WeatherDisplay:10.37,2013-01-12 04:03:00,
2013-01-11 23:08:00,47.5,47.2,29.05,South,180,0.0,0.0,99,0.00,OVC,,0.25,WeatherDisplay:10.37,2013-01-12 04:08:00,
2013-01-11 23:13:00,47.5,47.2,29.05,South,180,0.0,0.0,99,0.00,OVC,,0.25,WeatherDisplay:10.37,2013-01-12 04:13:00,
2013-01-11 23:18:00,47.5,47.2,29.05,South,180,0.0,0.0,99,0.00,OVC,,0.25,WeatherDisplay:10.37,2013-01-12 04:18:00,
2013-01-11 23:23:00,47.5,47.2,29.05,South,180,0.0,0.0,99,0.00,OVC,,0.25,WeatherDisplay:10.37,2013-01-12 04:23:00,
2013-01-11 23:28:00,47.5,47.2,29.04,South,180,0.0,0.0,99,0.00,OVC,,0.25,WeatherDisplay:10.37,2013-01-12 04:28:00,
2013-01-11 23:33:00,47.7,47.4,29.04,South,180,0.0,0.0,99,0.00,OVC,,0.25,WeatherDisplay:10.37,2013-01-12 04:33:00,
2013-01-11 23:38:00,47.7,47.4,29.03,South,180,0.0,0.0,99,0.00,OVC,,0.25,WeatherDisplay:10.37,2013-01-12 04:38:00,
2013-01-11 23:43:00,47.7,47.4,29.04,South,180,0.0,0.0,99,0.00,OVC,,0.25,WeatherDisplay:10.37,2013-01-12 04:43:00,
2013-01-11 23:48:00,47.7,47.4,29.04,South,180,0.0,0.0,99,0.00,OVC,,0.25,WeatherDisplay:10.37,2013-01-12 04:48:00,
2013-01-11 23:53:00,47.7,47.4,29.04,South,180,0.0,0.0,99,0.00,OVC,,0.25,WeatherDisplay:10.37,2013-01-12 04:53:00,
2013-01-11 23:58:00,47.7,47.4,29.03,South,180,0.0,0.0,99,0.00,OVC,,0.25,WeatherDisplay:10.37,2013-01-12 04:58:00,